Weather History for Alpena, MI

Change the Weather History Date:

Sunday, June 24, 2012

  Actual Average Record
Temperature  
Mean Temperature 66 °F 65 °F  
Max Temperature 76 °F 77 °F 97 °F (1997)
Min Temperature 55 °F 52 °F 30 °F (1925)
Degree Days  
Heating Degree Days 0 3  
Month to date heating degree days 81 128  
Since 1 June heating degree days 81 128  
Since 1 July heating degree days 6756 8085  
Cooling Degree Days 1 3  
Month to date cooling degree days 83 39  
Year to date cooling degree days 109 52  
Since 1 June cooling degree days 83 39  
Growing Degree Days 17 (Base 50)    
Moisture  
Dew Point 57 °F    
Average Humidity 71    
Maximum Humidity 84    
Minimum Humidity 58    
Precipitation  
Precipitation 0.07 in 0.09 in 1.12 in (1930)
Month to date precipitation 4.27 2.07  
Year to date precipitation 13.13 11.97  
Sea Level Pressure  
Sea Level Pressure 29.97 in    
Wind  
Wind Speed 5 mph (WNW)    
Max Wind Speed 20 mph    
Max Gust Speed 26 mph    
Visibility 10 miles    
Events Rain    
T = Trace of Precipitation, MM = Missing Value Source: NWS Daily Summary

Daily Weather History Graph

Daily Weather History Graph

Search for Another Location

Airport:

Trip Planner

Search our weather history database for the weather conditions in past years. The results will help you decide how hot, cold, wet, or windy it might be!

Date:

Astronomy

Jun. 24, 2012 Rise Set
Actual Time 5:48 AM EDT 9:25 PM EDT
Civil Twilight 5:10 AM EDT 10:02 PM EDT
Nautical Twilight 4:20 AM EDT 10:52 PM EDT
Astronomical Twilight 3:14 AM EDT 11:58 PM EDT
Moon 11:06 AM EDT (6/24) No Moon Set
Length of Visible Light 16h 52m
Length of Day
15h 37m
Waxing Crescent, 24% of the Moon is Illuminated
Jun 24
Waxing Crescent
Jun 26
First Quarter
Jul 3
Full
Jul 10
Last Quarter
Jul 19
New

Hourly Weather History & Observations

Time (EDT) Temp. Dew Point Humidity Pressure Visibility Wind Dir Wind Speed Gust Speed Precip Events Conditions
12:54 AM 64.9 °F 55.0 °F 70% 30.01 in 10.0 mi Calm Calm - N/A   Clear
1:54 AM 64.0 °F 57.0 °F 78% 30.02 in 10.0 mi Calm Calm - 0.00 in   Overcast
2:54 AM 63.0 °F 57.9 °F 84% 30.01 in 10.0 mi Calm Calm - 0.00 in Rain Light Rain
3:54 AM 63.0 °F 57.9 °F 84% 29.99 in 10.0 mi Calm Calm - 0.01 in   Overcast
4:54 AM 63.0 °F 57.9 °F 84% 29.98 in 10.0 mi SSW 8.1 mph - 0.00 in   Overcast
5:54 AM 62.1 °F 57.0 °F 84% 29.97 in 10.0 mi Calm Calm - N/A   Mostly Cloudy
6:54 AM 63.0 °F 55.9 °F 78% 29.96 in 10.0 mi SSW 3.5 mph - N/A   Overcast
7:54 AM 63.0 °F 55.9 °F 78% 29.98 in 10.0 mi West 4.6 mph - 0.00 in Rain Light Rain
8:54 AM 63.0 °F 59.0 °F 87% 29.99 in 10.0 mi North 5.8 mph - 0.02 in   Mostly Cloudy
9:54 AM 64.0 °F 57.9 °F 80% 29.98 in 10.0 mi Calm Calm - 0.00 in   Overcast
10:54 AM 64.9 °F 57.9 °F 78% 29.97 in 10.0 mi Calm Calm - 0.00 in Rain Light Rain
11:54 AM 64.9 °F 60.1 °F 84% 29.97 in 8.0 mi Calm Calm - 0.00 in Rain Light Rain
12:54 PM 64.9 °F 61.0 °F 87% 29.95 in 10.0 mi South 5.8 mph - 0.04 in   Overcast
1:18 PM 66.2 °F 62.6 °F 88% 29.95 in 10.0 mi SW 4.6 mph - N/A   Overcast
1:54 PM 68.0 °F 61.0 °F 78% 29.94 in 10.0 mi WSW 4.6 mph - N/A   Mostly Cloudy
2:54 PM 70.0 °F 62.1 °F 76% 29.93 in 10.0 mi WNW 6.9 mph - N/A   Overcast
3:33 PM 71.6 °F 62.6 °F 73% 29.93 in 10.0 mi Variable 5.8 mph - N/A   Overcast
3:54 PM 72.0 °F 62.1 °F 71% 29.93 in 10.0 mi WNW 6.9 mph - N/A   Mostly Cloudy
4:54 PM 75.0 °F 59.0 °F 57% 29.92 in 10.0 mi WNW 6.9 mph 16.1 mph N/A   Mostly Cloudy
5:54 PM 73.9 °F 59.0 °F 59% 29.93 in 10.0 mi NNW 11.5 mph 19.6 mph N/A   Mostly Cloudy
6:54 PM 72.0 °F 57.9 °F 61% 29.93 in 10.0 mi NNW 13.8 mph 21.9 mph N/A   Clear
7:54 PM 69.1 °F 55.0 °F 61% 29.95 in 10.0 mi NNW 17.3 mph 24.2 mph N/A   Clear
8:54 PM 64.9 °F 50.0 °F 58% 29.96 in 10.0 mi NNW 16.1 mph - N/A   Clear
9:54 PM 61.0 °F 48.0 °F 62% 29.97 in 10.0 mi NW 6.9 mph - N/A   Clear
10:54 PM 59.0 °F 48.0 °F 67% 29.99 in 10.0 mi NNW 6.9 mph - N/A   Scattered Clouds
11:54 PM 57.0 °F 48.0 °F 72% 30.00 in 10.0 mi Calm Calm - N/A   Clear